DMSP 5D-2 F13 DEB, 40576

Orbit data source: Space-Track

DMSP 5D-2 F13 DEB, 40576 is space debris in SSO originally from a launch on Fri, 24 Mar 1995 UTC launched from the Air Force Western Test Range (AFWTR). Debris objects in space refer to the collection of defunct objects orbiting the Earth. Examples of debris include non-operational satellites, rocket bodies, and fragments generated from explosions, collisions, or faulty payload assembly.

Loading next visibility...
Identifier
40576, 1995-015EK
Orbit
SSO
Country
Flag of USUS
Related business
Manufacturer
Unknown
Mission
Spacecraft
Bus & Motor
Unknown
Mass
Unknown
Launch date (UTC)
1995-03-24 (31 years ago)
Launch vehicle
Unknown
Launch site
Air Force Western Test Range (AFWTR)
Object type
Payload
Rocket body
Debris
Shape & HBR
Unknown shape, 0.1 m
Radar Cross Section
Small (<0.1 m²)

Expand to show TLE details & history
Last TLE update: 5 days ago

TLE from 5 days ago
0 DMSP 5D-2 F13 DEB
1 40576U 95015EK  25300.42828569  .00010484  00000-0  25193-2 0  9995
2 40576  98.5702 355.9618 0025952 155.3895 204.8545 14.53343062551607
Epoch: 2025-10-27T10:16Z
TLE epoch observation values (Epoch: 2025-10-27T10:16:43.883Z)
Latitude
-0.00002°
Longitude
165.74869°
Altitude
734.43 km
Speed
7.479 km/s
True Right ascension
23h 43m 50s
True Declination
0° 00' 00"
Sunlit
Object was in full shadow at epoch
Visualization orbit readout
Latitude
Unknown
Longitude
Unknown
Altitude
Unknown
Speed
Unknown
Apparent Right ascension
Unknown
Apparent Declination
Unknown
Sunlit
N/A
Visualization observer readout
Local Sidereal Time
19:51:54
Azimuth
Unknown
Elevation
Unknown
Doppler factor
Unknown
Orbital elements
Apogee altitude
730.258 km
Perigee altitude
693.458 km
Semi-major axis
7,089.995 km
Eccentricity
0.0026
Inclination
98.5702°
RAAN
355.9618°
Arg. of periapsis
155.3895°
True anomaly
204.72987°
Mean anomaly
204.8545°
Eccentric anomaly
204.79215°
Mean motion
3.63558 °/min
Orbital period
99.02 mins
BSTAR
0.0025193

Documentation

Showing up to 5 results
|